{"data":{"norad_id":45660,"epoch":"2026-05-25T02:11:49.136352Z","epoch_age_seconds":77437,"freshness":"FRESH","line1":"1 45660U 20035D   26145.09154093  .00039205  00000+0  12901-2 0  9993","line2":"2 45660  53.1333  70.7918 0004417  59.8787 300.2651 15.31148191330448","mean_motion":15.31148191,"eccentricity":0.0004417,"inclination_deg":53.1333,"raan_deg":70.7918,"arg_perigee_deg":59.8787,"mean_anomaly_deg":300.2651,"bstar":0.0012901,"rev_number":33044,"period_min":94.047069282009,"perigee_km":469.35952738303,"apogee_km":475.41127887396,"semimajor_km":6850.5224031285,"source":"CELESTRAK","updated_at":"2026-05-25T13:38:16.426297Z"}}